Torna al catalogo

COSMOS 1867 COOLANT

AttivoLEO
NORAD 39675·DEBRIS·🇷🇺 Russia

Lanciato Jul 10, 1987 da Baikonur Cosmodrome

Loading…

Prossimi Passaggi (prossime 24 ore)

TLE

AggiornatoSource: Space-Track

Epoca: Sep 14, 2026, 08:09 UTC

1 39675U 87060AN  26257.33964982  .00000189  00000-0  10225-3 0  9998
2 39675  65.0059 116.1744 0018435 279.0727  80.8273 14.34575983649507

Traccia COSMOS 1867 COOLANT in tempo reale con AllMySat

Download on the App Store